Location: *
(41.7492°S, 135.4150°W)
Time: 17:58:05
(UTC+00:00)

USA 308 - Pass Details

Date: 20 September 2021
Orbit: 566 x 573 km, 54.0° (Epoch: 23 September)

Event Time Altitude Azimuth Distance (km) Brightness Sun altitude
Exits shadow 13:34:45 19° 324° (NW) 1,390 4.4 -15.4°
Maximum altitude 13:37:43 67° 43° (NE) 632 3.2 -14.9°
Drops below altitude 10° 13:42:01 10° 125° (SE) 1,902 6.7 -14.1°
Sets 13:44:18 0° 127° (SE) 2,804 7.7 -13.7°
